FW9692 Weather Reports


time (UTC)temp
C
wind
direction
speed
KPH
gust
KPH
rain 1hr
cm
rain 24hr
cm
rain mn
cm
humidity
%
barometer
mb
20260906073036 25 61 11.3 17.7 0.03 0.28 0.28 69 999.4
20260906071529 26 85 16.1 19.3 0.00 0.25 0.25 65 999.4
20260906070031 27 98 11.3 22.5 0.00 0.25 0.25 59 999.5
20260906064534 28 90 11.3 14.5 0.00 0.25 0.25 52 999.6
20260906063028 28 146 4.8 14.5 0.00 0.25 0.25 52 999.6
20260906061528 27 219 4.8 9.7 0.00 0.25 0.25 56 999.4
20260906060032 27 243 6.4 11.3 0.00 0.25 0.25 58 999.4
20260906054529 26 236 9.7 17.7 0.03 0.25 0.25 60 999.6
20260906053030 26 242 12.9 19.3 0.03 0.25 0.25 60 999.6
20260906051532 26 232 8.0 11.3 0.03 0.25 0.25 65 999.6
20260906050053 26 262 12.9 19.3 0.03 0.25 0.25 63 999.6
20260906044528 26 267 14.5 20.9 0.03 0.23 0.23 64 999.6
20260906043030 26 275 16.1 24.1 0.03 0.23 0.23 64 999.6
20260906041526 27 268 29.0 37.0 0.05 0.23 0.23 57 999.4
20260906040036 25 303 27.4 33.8 0.05 0.23 0.23 68 999.6
20260906034527 25 340 24.1 30.6 0.08 0.20 0.20 68 999.8
20260906033031 25 336 24.1 29.0 0.08 0.20 0.20 73 999.6
20260906031539 25 239 17.7 20.9 0.08 0.18 0.18 72 999.2
20260906030032 25 225 22.5 30.6 0.13 0.18 0.18 68 998.6
20260906024529 25 241 29.0 33.8 0.10 0.15 0.15 65 998.4
20260906023041 26 227 24.1 27.4 0.10 0.13 0.13 63 998.5
20260906021518 26 178 9.7 25.7 0.08 0.10 0.10 59 998.5
20260906020041 25 88 48.3 54.7 0.08 0.08 0.08 65 998.4
20260906014521 28 23 19.3 24.1 0.05 0.05 0.05 55 997.6
20260906013020 27 305 27.4 33.8 0.05 0.05 0.05 57 997.3
20260906011513 28 292 24.1 35.4 0.03 0.03 0.03 53 997.3
20260906010012 30 317 30.6 43.5 0.00 0.00 0.00 47 997.4
20260906004511 32 348 33.8 46.7 0.00 0.00 0.00 40 997.2
20260906003011 33 236 20.9 24.1 0.00 0.00 0.00 36 996.6
20260906001511 33 248 17.7 30.6 0.00 0.00 0.00 36 996.5
20260906000010 34 269 12.9 17.7 0.00 0.00 0.00 33 996.3
20260905234509 34 246 8.0 14.5 0.00 0.00 0.00 33 996.4
20260905233023 34 273 9.7 17.7 0.00 0.00 0.00 35 996.3
20260905231514 33 275 17.7 29.0 0.00 0.00 0.00 34 996.3
20260905230013 33 279 30.6 40.2 0.00 0.00 0.00 34 996.1
20260905224511 34 269 22.5 25.7 0.00 0.00 0.00 34 996.1
20260905223007 35 133 8.0 22.5 0.00 0.00 0.00 29 996.1
20260905221508 36 98 6.4 16.1 0.00 0.00 0.00 29 996.1
20260905220006 35 123 8.0 19.3 0.00 0.00 0.00 30 996.1
20260905214505 35 92 9.7 24.1 0.00 0.00 0.00 30 996.3
20260905213003 35 93 9.7 24.1 0.00 0.00 0.00 30 996.4
20260905211502 35 92 11.3 22.5 0.00 0.00 0.00 31 996.6
20260905210103 36 90 16.1 30.6 0.00 0.00 0.00 30 996.7
20260905204558 36 146 8.0 14.5 0.00 0.00 0.00 30 997.0
20260905203001 36 168 16.1 24.1 0.00 0.00 0.00 30 997.3
20260905201602 35 63 11.3 20.9 0.00 0.00 0.00 32 997.5
20260905200058 35 117 9.7 25.7 0.00 0.00 0.00 32 997.8
20260905194557 35 36 9.7 25.7 0.00 0.00 0.00 33 997.9
20260905193051 35 41 8.0 22.5 0.00 0.00 0.00 34 998.2
20260905191548 34 133 16.1 24.1 0.00 0.00 0.00 35 998.5
20260905190045 34 210 11.3 19.3 0.00 0.00 0.00 37 998.7
20260905184539 34 53 8.0 19.3 0.00 0.00 0.00 37 998.9
20260905183038 33 59 9.7 22.5 0.00 0.00 0.00 38 999.1
20260905181535 33 305 6.4 17.7 0.00 0.00 0.00 39 999.3
20260905180033 33 9 8.0 19.3 0.00 0.00 0.00 41 999.6
20260905174537 32 56 6.4 16.1 0.00 0.00 0.00 43 999.8
20260905173031 32 335 3.2 14.5 0.00 0.00 0.00 43 999.9
20260905171527 31 337 11.3 20.9 0.00 0.00 0.00 44 1000.0
20260905170030 31 11 9.7 22.5 0.00 0.00 0.00 45 1000.0
20260905164529 31 259 11.3 19.3 0.00 0.00 0.00 46 1000.1
20260905163027 31 328 12.9 20.9 0.00 0.00 0.00 46 1000.1
20260905161519 30 294 11.3 19.3 0.00 0.00 0.00 48 1000.1
20260905160044 30 286 11.3 19.3 0.00 0.00 0.00 49 1000.2
20260905154513 29 304 11.3 20.9 0.00 0.00 0.00 51 1000.2
20260905153018 28 279 16.1 19.3 0.00 0.00 0.00 52 1000.2
20260905151509 28 284 11.3 24.1 0.00 0.00 0.00 54 1000.3
20260905150016 27 266 19.3 22.5 0.00 0.00 0.00 54 1000.3
20260905144519 27 257 14.5 20.9 0.00 0.00 0.00 55 1000.5
20260905143003 27 244 16.1 22.5 0.00 0.00 0.00 56 1000.4
20260905141613 26 254 14.5 20.9 0.00 0.00 0.00 57 1000.4
20260905140104 26 262 16.1 20.9 0.00 0.00 0.00 59 1000.3
20260905134607 25 248 16.1 19.3 0.00 0.00 0.00 59 1000.3
20260905133100 25 257 11.3 14.5 0.00 0.00 0.00 60 1000.1
20260905131600 24 243 14.5 17.7 0.00 0.00 0.00 62 999.9
20260905130058 24 269 14.5 17.7 0.00 0.00 0.00 62 999.8
20260905124555 24 262 9.7 12.9 0.00 0.00 0.00 62 999.7
20260905123057 24 249 8.0 11.3 0.00 0.00 0.00 63 999.5
20260905121552 24 272 9.7 17.7 0.00 0.00 0.00 62 999.3
20260905120057 24 262 14.5 20.9 0.00 0.00 0.00 61 999.2
20260905114624 25 269 19.3 24.1 0.00 0.00 0.00 60 999.1
20260905113056 25 281 17.7 20.9 0.00 0.00 0.00 62 999.1
20260905111553 25 294 16.1 17.7 0.00 0.00 0.00 60 999.0
20260905110050 26 288 12.9 16.1 0.00 0.00 0.00 57 999.0
20260905104551 26 319 6.4 9.7 0.00 0.00 0.00 57 998.9
20260905103046 26 302 12.9 14.5 0.00 0.00 0.00 55 998.8
20260905101550 26 18 4.8 8.0 0.00 0.00 0.00 55 998.9
20260905100106 25 300 6.4 8.0 0.00 0.00 0.00 59 998.6
20260905094603 25 50 4.8 12.9 0.00 0.00 0.00 62 998.9
20260905093037 25 269 14.5 17.7 0.00 0.00 0.00 60 998.4
20260905091544 26 281 14.5 16.1 0.00 0.00 0.00 57 998.4
20260905090033 25 303 14.5 17.7 0.00 0.00 0.00 58 998.6
20260905084530 25 301 11.3 19.3 0.00 0.00 0.00 57 998.5
20260905083030 26 319 16.1 19.3 0.00 0.00 0.00 56 998.5
20260905081530 26 297 17.7 20.9 0.00 0.00 0.00 54 998.5
20260905080038 26 312 14.5 17.7 0.00 0.00 0.00 54 998.4
20260905074542 26 277 4.8 14.5 0.00 0.00 0.00 55 998.6